Date String (YYYY-MM-DD hh:mm:ss) UTC,Instrument flags,absolute air pressure of the measurement (hPa),sample flow rate (lpm),inlet stack bypass flow (lpm),air temperature of the measurement (°C),ambient temperature measured by the external sensor (°C),aerosol sample conditioner tube jacket temperature (°C),OPC LED temperature (°C),internal box temperature (°C),relative humidity of the measurement (%),span deviation,mass concentration of particles derived from Lorenz-Mie calculation of OPC scattering (μg/m³),mass concentration of particles derived from Lorenz-Mie calculation of OPC scattering (μg/m³),mass concentration of particles derived from Lorenz-Mie calculation of OPC scattering (μg/m³)
DateTimeUTC,F1_M11,P_M11,Q1_M11,Q2_M11,T1_M11,T2_M11,T3_M11,T4_M11,T5_M11,U1_M11,ZSPAN_M11,X2_M11,X0_M11,X1_M11
2023-12-18 01:00:00,SystemResetWarning,0836.7,5.01,000.00,026.6,025.5,000.0,034.8,027.9,7.2,0000.0,0001.38,0005.94,0000.80
2023-12-18 01:01:00,SystemResetWarning,0836.7,5.00,000.00,026.6,025.6,000.0,034.8,027.9,7.2,0000.0,0001.38,0006.20,0000.81
2023-12-18 01:02:00,SystemResetWarning,0836.7,5.00,000.00,026.6,025.6,000.0,034.8,027.9,7.2,0000.0,0001.37,0006.00,0000.82
2023-12-18 01:03:00,SystemResetWarning,0836.7,4.99,000.00,026.6,025.6,000.0,034.8,027.9,7.2,0000.0,0001.34,0007.25,0000.83
2023-12-18 01:04:00,SystemResetWarning,0836.7,5.00,000.00,026.6,025.6,000.0,034.8,027.9,7.2,0000.0,0001.38,0007.35,0000.84
2023-12-18 01:05:00,SystemResetWarning,0836.7,4.99,000.00,026.6,025.6,000.0,034.8,027.9,7.2,0000.0,0001.39,0007.35,0000.86
2023-12-18 01:06:00,SystemResetWarning,0836.8,5.00,000.00,026.6,025.5,000.0,034.8,027.9,7.2,0000.0,0001.44,0007.62,0000.88
2023-12-18 01:07:00,SystemResetWarning,0836.8,5.01,000.00,026.6,025.5,000.0,034.8,027.9,7.2,0000.0,0001.45,0008.46,0000.88
2023-12-18 01:08:00,SystemResetWarning,0836.8,5.00,000.00,026.6,025.5,000.0,034.8,027.9,7.2,0000.0,0001.44,0009.05,0000.88
2023-12-18 01:09:00,SystemResetWarning,0836.8,5.00,000.00,026.6,025.5,000.0,034.8,027.9,7.2,0000.0,0001.42,0009.09,0000.87
2023-12-18 01:10:00,SystemResetWarning,0836.8,5.01,000.00,026.6,025.5,000.0,034.8,027.9,7.2,0000.0,0001.41,0009.28,0000.89
2023-12-18 01:11:00,SystemResetWarning,0836.8,4.99,000.00,026.6,025.5,000.0,034.8,027.9,7.2,0000.0,0001.37,0009.24,0000.88
2023-12-18 01:12:00,SystemResetWarning,0836.8,4.99,000.00,026.5,025.5,000.0,034.8,027.9,7.2,0000.0,0001.36,0008.81,0000.88
2023-12-18 01:13:00,SystemResetWarning,0836.8,5.00,000.00,026.5,025.5,000.0,034.8,027.9,7.3,0000.0,0001.36,0009.18,0000.87
2023-12-18 01:14:00,SystemResetWarning,0836.7,5.00,000.00,026.5,025.5,000.0,034.8,027.9,7.3,0000.0,0001.39,0008.99,0000.87
2023-12-18 01:15:00,SystemResetWarning,0836.8,5.00,000.00,026.5,025.5,000.0,034.8,027.9,7.3,0000.0,0001.39,0009.08,0000.86
2023-12-18 01:16:00,SystemResetWarning,0836.8,5.01,000.00,026.5,025.5,000.0,034.8,027.9,7.3,0000.0,0001.41,0009.62,0000.86
2023-12-18 01:17:00,SystemResetWarning,0836.8,5.01,000.00,026.5,025.5,000.0,034.8,027.9,7.3,0000.0,0001.45,0009.76,0000.86
2023-12-18 01:18:00,SystemResetWarning,0836.8,4.99,000.00,026.5,025.5,000.0,034.8,027.8,7.3,0000.0,0001.51,0009.07,0000.86
2023-12-18 01:19:00,SystemResetWarning,0836.8,5.00,000.00,026.5,025.5,000.0,034.8,027.9,7.3,0000.0,0001.54,0009.41,0000.87
2023-12-18 01:20:00,SystemResetWarning,0836.9,5.00,000.00,026.5,025.4,000.0,034.8,027.8,7.3,0000.0,0001.56,0009.23,0000.87
2023-12-18 01:21:00,SystemResetWarning,0836.9,5.00,000.00,026.5,025.4,000.0,034.8,027.8,7.3,0000.0,0001.61,0008.99,0000.88
2023-12-18 01:22:00,SystemResetWarning,0837.0,5.00,000.00,026.5,025.4,000.0,034.8,027.8,7.3,0000.0,0001.59,0008.30,0000.90
2023-12-18 01:23:00,SystemResetWarning,0837.0,5.00,000.00,026.5,025.4,000.0,034.8,027.8,7.3,0000.0,0001.60,0008.38,0000.91
2023-12-18 01:24:00,SystemResetWarning,0836.9,5.00,000.00,026.5,025.4,000.0,034.8,027.8,7.3,0000.0,0001.64,0008.39,0000.93
2023-12-18 01:25:00,SystemResetWarning,0837.0,5.00,000.00,026.5,025.5,000.0,034.8,027.8,7.3,0000.0,0001.65,0008.10,0000.94
2023-12-18 01:26:00,SystemResetWarning,0837.0,5.00,000.00,026.5,025.5,000.0,034.8,027.8,7.3,0000.0,0001.67,0008.02,0000.95
2023-12-18 01:27:00,SystemResetWarning,0837.0,5.00,000.00,026.5,025.5,000.0,034.8,027.9,7.3,0000.0,0001.73,0007.89,0000.96
2023-12-18 01:28:00,SystemResetWarning,0837.1,5.00,000.00,026.5,025.5,000.0,034.8,027.8,7.4,0000.0,0001.77,0007.62,0000.97
2023-12-18 01:29:00,SystemResetWarning,0837.1,5.00,000.00,026.5,025.5,000.0,034.8,027.8,7.4,0000.0,0001.76,0007.56,0000.98
2023-12-18 01:30:00,SystemResetWarning,0837.1,5.00,000.00,026.5,025.5,000.0,034.8,027.8,7.4,0000.0,0001.70,0006.24,0000.99
2023-12-18 01:31:00,SystemResetWarning,0837.1,5.00,000.00,026.5,025.5,000.0,034.8,027.8,7.4,0000.0,0001.76,0005.74,0001.00
2023-12-18 01:32:00,SystemResetWarning,0837.2,5.00,000.00,026.5,025.5,000.0,034.8,027.8,7.4,0000.0,0001.75,0005.93,0001.01
2023-12-18 01:33:00,SystemResetWarning,0837.1,5.00,000.00,026.5,025.5,000.0,034.8,027.9,7.4,0000.0,0001.80,0006.61,0001.01
2023-12-18 01:34:00,SystemResetWarning,0837.1,5.00,000.00,026.5,025.5,000.0,034.8,027.9,7.4,0000.0,0001.83,0006.72,0001.01
2023-12-18 01:35:00,SystemResetWarning,0837.2,5.00,000.00,026.5,025.5,000.0,034.8,027.8,7.4,0000.0,0001.83,0006.80,0001.00
2023-12-18 01:36:00,SystemResetWarning,0837.2,5.00,000.00,026.5,025.5,000.0,034.8,027.8,7.4,0000.0,0001.87,0007.35,0001.00
2023-12-18 01:37:00,SystemResetWarning,0837.1,5.00,000.00,026.5,025.5,000.0,034.8,027.8,7.4,0000.0,0001.85,0008.09,0001.00
2023-12-18 01:38:00,SystemResetWarning,0837.1,5.00,000.00,026.5,025.5,000.0,034.8,027.8,7.4,0000.0,0001.81,0008.36,0000.99
2023-12-18 01:39:00,SystemResetWarning,0837.2,5.00,000.00,026.5,025.5,000.0,034.8,027.8,7.4,0000.0,0001.74,0008.16,0001.00
2023-12-18 01:40:00,SystemResetWarning,0837.2,5.00,000.00,026.5,025.5,000.0,034.8,027.8,7.4,0000.0,0001.79,0008.40,0001.00
2023-12-18 01:41:00,SystemResetWarning,0837.2,5.00,000.00,026.5,025.5,000.0,034.8,027.8,7.4,0000.0,0001.82,0008.48,0001.01
2023-12-18 01:42:00,SystemResetWarning,0837.2,5.00,000.00,026.5,025.5,000.0,034.8,027.8,7.4,0000.0,0001.77,0008.45,0001.01
2023-12-18 01:43:00,SystemResetWarning,0837.2,5.01,000.00,026.5,025.5,000.0,034.8,027.9,7.4,0000.0,0001.75,0008.27,0001.01
2023-12-18 01:44:00,SystemResetWarning,0837.2,5.00,000.00,026.5,025.5,000.0,034.8,027.9,7.4,0000.0,0001.74,0008.24,0001.00
2023-12-18 01:45:00,SystemResetWarning,0837.2,5.00,000.00,026.5,025.5,000.0,034.8,027.9,7.4,0000.0,0001.77,0008.24,0001.01
2023-12-18 01:46:00,SystemResetWarning,0837.2,5.00,000.00,026.5,025.5,000.0,034.8,027.9,7.4,0000.0,0001.81,0008.29,0001.03
2023-12-18 01:47:00,SystemResetWarning,0837.2,5.00,000.00,026.5,025.5,000.0,034.8,027.9,7.4,0000.0,0001.72,0007.65,0001.02
2023-12-18 01:48:00,SystemResetWarning,0837.2,5.00,000.00,026.5,025.5,000.0,034.8,027.9,7.4,0000.0,0001.71,0006.42,0001.01
2023-12-18 01:49:00,SystemResetWarning,0837.2,5.00,000.00,026.5,025.5,000.0,034.8,027.9,7.4,0000.0,0001.74,0006.04,0001.03
2023-12-18 01:50:00,SystemResetWarning,0837.2,5.00,000.00,026.5,025.5,000.0,034.8,027.9,7.4,0000.0,0001.69,0005.79,0001.03
2023-12-18 01:51:00,SystemResetWarning,0837.2,5.00,000.00,026.5,025.5,000.0,034.8,027.9,7.4,0000.0,0001.66,0005.44,0001.02
2023-12-18 01:52:00,SystemResetWarning,0837.2,5.00,000.00,026.5,025.5,000.0,034.8,027.9,7.3,0000.0,0001.63,0005.19,0001.01
2023-12-18 01:53:00,SystemResetWarning,0837.2,5.00,000.00,026.5,025.5,000.0,034.8,027.8,7.3,0000.0,0001.67,0005.25,0001.02
2023-12-18 01:54:00,SystemResetWarning,0837.2,4.99,000.00,026.5,025.5,000.0,034.8,027.8,7.3,0000.0,0001.69,0004.96,0001.03
2023-12-18 01:55:00,SystemResetWarning,0837.3,5.00,000.00,026.5,025.5,000.0,034.8,027.9,7.3,0000.0,0001.64,0004.58,0001.03
2023-12-18 01:56:00,SystemResetWarning,0837.3,5.00,000.00,026.5,025.5,000.0,034.8,027.9,7.3,0000.0,0001.60,0005.64,0001.02
2023-12-18 01:57:00,SystemResetWarning,0837.3,5.00,000.00,026.5,025.5,000.0,034.8,027.9,7.3,0000.0,0001.58,0005.33,0001.02
2023-12-18 01:58:00,SystemResetWarning,0837.3,5.00,000.00,026.5,025.5,000.0,034.8,027.9,7.3,0000.0,0001.62,0006.42,0001.03
2023-12-18 01:59:00,SystemResetWarning,0837.3,5.00,000.00,026.5,025.5,000.0,034.8,027.9,7.4,0000.0,0001.63,0007.31,0001.03
